FW3096 Weather Reports


time (UTC)temp
F
wind
direction
speed
knots
gust
knots
rain 1hr
in
rain 24hr
in
rain mn
in
humidity
%
barometer
mb
20260504151008 66 286 2.6 7.0 0.00 0.00 0.00 46 1014.9
20260504150509 66 317 1.7 6.1 0.00 0.00 0.00 49 1014.9
20260504140507 62 200 1.7 5.2 0.00 0.00 0.00 57 1014.9
20260504130507 57 98 1.7 5.2 0.00 0.00 0.00 68 1015.4
20260504110507 42 90 0.0 0.0 0.00 0.00 0.00 89 1016.0
20260504100508 42 90 0.0 1.7 0.00 0.00 0.00 87 1016.1
20260504082007 42 178 0.0 0.0 0.00 0.00 0.00 85 1016.1
20260504081508 42 178 0.0 1.7 0.00 0.00 0.00 85 1016.0
20260504081007 42 178 0.0 1.7 0.00 0.00 0.00 85 1016.0
20260504080506 42 178 0.9 1.7 0.00 0.00 0.00 85 1015.9
20260504050506 43 292 0.0 0.0 0.00 0.00 0.00 75 1016.0
20260504050009 43 292 0.0 0.0 0.00 0.00 0.00 75 1016.1
20260504045506 43 292 0.0 0.0 0.00 0.00 0.00 74 1016.0
20260504045007 43 292 0.0 0.0 0.00 0.00 0.00 74 1016.1
20260504044509 43 292 0.0 0.0 0.00 0.00 0.00 74 1015.9
20260504044009 43 292 0.0 0.0 0.00 0.00 0.00 74 1015.9
20260504043508 43 292 0.0 0.0 0.00 0.00 0.00 73 1015.9
20260504043010 43 292 0.0 0.0 0.00 0.00 0.00 73 1015.8
20260504042508 43 292 0.0 0.0 0.00 0.00 0.00 73 1015.7
20260504041509 43 292 0.0 0.0 0.00 0.00 0.00 73 1015.6
20260504040508 43 292 0.0 0.9 0.00 0.00 0.00 72 1015.6
20260504040019 43 292 0.0 0.9 0.00 0.00 0.00 72 1015.5
20260504035008 43 292 0.0 0.0 0.00 0.00 0.00 72 1015.4
20260504034010 44 292 0.0 0.0 0.00 0.00 0.00 71 1015.5
20260504033508 44 292 0.0 0.0 0.00 0.00 0.00 70 1015.4
20260504033008 44 292 0.0 0.0 0.00 0.00 0.00 69 1015.3
20260504032509 44 292 0.0 0.0 0.00 0.00 0.00 69 1015.4
20260504032008 44 292 0.0 0.0 0.00 0.00 0.00 69 1015.4
20260504031508 44 292 0.0 0.0 0.00 0.00 0.00 69 1015.3
20260504031010 45 292 0.0 0.0 0.00 0.00 0.00 68 1015.3
20260504030508 45 292 0.0 0.0 0.00 0.00 0.00 68 1015.3
20260504030010 45 292 0.0 0.0 0.00 0.00 0.00 67 1015.2
20260504025509 45 292 0.0 0.0 0.00 0.00 0.00 65 1015.2
20260504025009 46 292 0.0 0.0 0.00 0.00 0.00 65 1015.3
20260504024009 46 292 0.0 0.0 0.00 0.00 0.00 64 1015.4
20260504023508 46 292 0.0 0.0 0.00 0.00 0.00 64 1015.4
20260504023009 47 292 0.0 0.0 0.00 0.00 0.00 64 1015.3
20260504022509 47 292 0.0 0.0 0.00 0.00 0.00 63 1015.3
20260504022009 47 292 0.0 0.0 0.00 0.00 0.00 63 1015.4
20260504020508 48 292 0.0 0.0 0.00 0.00 0.00 61 1015.4
20260504020009 48 292 0.0 0.0 0.00 0.00 0.00 60 1015.3
20260504015008 49 292 0.0 0.0 0.00 0.00 0.00 59 1015.3
20260504014508 49 292 0.0 0.0 0.00 0.00 0.00 58 1015.3
20260504013508 50 292 0.0 0.0 0.00 0.00 0.00 56 1015.3
20260504013009 50 292 0.0 0.0 0.00 0.00 0.00 55 1015.2
20260504012509 50 292 0.0 0.0 0.00 0.00 0.00 55 1015.1
20260504012008 51 292 0.0 0.0 0.00 0.00 0.00 55 1015.0
20260504011507 51 292 0.0 0.0 0.00 0.00 0.00 55 1014.9
20260504011011 51 292 0.0 0.0 0.00 0.00 0.00 54 1014.7
20260504010508 52 292 0.0 0.0 0.00 0.00 0.00 54 1014.7
20260504010010 52 292 0.0 0.0 0.00 0.00 0.00 53 1014.7
20260504005509 52 292 0.0 0.0 0.00 0.00 0.00 54 1014.5
20260504005008 52 292 0.0 0.0 0.00 0.00 0.00 53 1014.5
20260504004507 52 292 0.0 0.0 0.00 0.00 0.00 52 1014.5
20260504004010 52 292 0.0 0.0 0.00 0.00 0.00 52 1014.4
20260504003507 52 292 0.0 0.0 0.00 0.00 0.00 52 1014.5
20260504003010 52 292 0.0 0.0 0.00 0.00 0.00 50 1014.3
20260504002510 52 292 0.0 0.0 0.00 0.00 0.00 51 1014.2
20260504002008 53 292 0.0 0.0 0.00 0.00 0.00 49 1014.1
20260504001508 53 292 0.0 0.0 0.00 0.00 0.00 49 1014.0
20260504001010 54 292 0.0 1.7 0.00 0.00 0.00 48 1014.0
20260504000508 54 292 0.0 1.7 0.00 0.00 0.00 47 1014.0
20260504000010 54 292 0.0 0.9 0.00 0.00 0.00 45 1014.1
20260503235509 55 292 0.0 0.0 0.00 0.00 0.00 45 1014.0
20260503235009 56 292 0.0 1.7 0.00 0.00 0.00 43 1014.0
20260503233507 57 329 1.7 3.5 0.00 0.00 0.00 41 1013.9
20260503233009 57 313 1.7 3.5 0.00 0.00 0.00 41 1013.9
20260503232509 57 292 0.9 3.5 0.00 0.00 0.00 42 1013.9
20260503232008 58 292 0.9 7.0 0.00 0.00 0.00 40 1013.7
20260503231509 58 294 1.7 8.7 0.00 0.00 0.00 40 1013.8
20260503231008 58 320 3.5 8.7 0.00 0.00 0.00 38 1013.7
20260503230507 58 348 2.6 7.8 0.00 0.00 0.00 38 1013.8
20260503225507 58 322 0.9 9.6 0.00 0.00 0.00 39 1013.7
20260503225008 58 301 1.7 7.8 0.00 0.00 0.00 39 1013.7
20260503224509 59 333 1.7 8.7 0.00 0.00 0.00 40 1013.7
20260503224008 59 282 3.5 8.7 0.00 0.00 0.00 37 1013.7
20260503223507 59 300 1.7 7.0 0.00 0.00 0.00 40 1013.6
20260503222508 59 257 1.7 7.0 0.00 0.00 0.00 38 1013.6
20260503222008 59 281 2.6 7.8 0.00 0.00 0.00 37 1013.6
20260503221510 59 275 2.6 8.7 0.00 0.00 0.00 38 1013.6
20260503221008 60 335 2.6 7.0 0.00 0.00 0.00 38 1013.5
20260503220507 60 349 2.6 7.0 0.00 0.00 0.00 38 1013.6
20260503220011 60 300 133.8 569.2 7.36 0.00 0.00 37
20260503215508 60 315 4.3 12.2 0.00 0.00 0.00 36 1013.5
20260503214508 60 295 4.3 12.2 0.00 0.00 0.00 37 1013.6
20260503214010 60 275 1.7 13.9 0.00 0.00 0.00 37 1013.5
20260503212508 60 343 2.6 13.0 0.00 0.00 0.00 37 1013.6
20260503212011 60 312 4.3 13.0 0.00 0.00 0.00 37 1013.4
20260503211508 60 309 0.9 10.4 0.00 0.00 0.00 38 1013.6
20260503211010 59 321 1.7 7.8 0.00 0.00 0.00 38 1013.6
20260503210508 60 325 4.3 7.8 0.00 0.00 0.00 36 1013.7
20260503210009 60 279 2.6 7.0 0.00 0.00 0.00 41 1013.5
20260503205508 61 334 1.7 8.7 0.00 0.00 0.00 38 1013.6
20260503205009 60 319 2.6 13.0 0.00 0.00 0.00 40 1013.6
20260503204508 60 240 2.6 13.0 0.00 0.00 0.00 41 1013.6
20260503204009 59 316 4.3 13.0 0.00 0.00 0.00 39 1013.7
20260503203508 60 308 4.3 12.2 0.00 0.00 0.00 37 1013.7
20260503203010 60 40 3.5 12.2 0.00 0.00 0.00 39 1013.7
20260503202508 59 315 4.3 10.4 0.00 0.00 0.00 41 1013.7
20260503201011 59 328 4.3 13.0 0.00 0.00 0.00 38 1013.9
20260503200507 59 313 3.5 10.4 0.00 0.00 0.00 38 1013.8
20260503195507 58 355 4.3 13.0 0.00 0.00 0.00 40 1013.8
20260503195007 58 310 4.3 13.0 0.00 0.00 0.00 40 1014.0
20260503194508 58 315 5.2 16.5 0.00 0.00 0.00 38 1014.0
20260503194007 58 5 6.1 16.5 0.00 0.00 0.00 39 1014.1
20260503193507 57 326 3.5 13.9 0.00 0.00 0.00 39 1014.1
20260503193009 58 317 7.8 13.9 0.00 0.00 0.00 38 1014.1
20260503192008 59 209 3.5 12.2 0.00 0.00 0.00 39 1014.1
20260503191507 59 288 6.1 12.2 0.00 0.00 0.00 38 1014.2
20260503191011 59 308 3.5 17.4 0.00 0.00 0.00 40 1014.4
20260503190507 58 294 4.3 17.4 0.00 0.00 0.00 40 1014.3
20260503190009 59 319 7.0 11.3 0.00 0.00 0.00 37 1014.2
20260503185507 59 299 4.3 10.4 0.00 0.00 0.00 41 1014.3
20260503184507 57 340 7.8 14.8 0.00 0.00 0.00 39 1014.5
20260503184010 57 348 7.8 14.8 0.00 0.00 0.00 39 1014.5
20260503183507 58 355 7.0 14.8 0.00 0.00 0.00 37 1014.4
20260503183008 59 25 4.3 11.3 0.00 0.00 0.00 38 1014.5
20260503182008 58 216 3.5 13.0 0.00 0.00 0.00 42 1014.5
20260503181507 58 348 5.2 13.0 0.00 0.00 0.00 40 1014.6
20260503181009 57 15 3.5 16.5 0.00 0.00 0.00 40 1014.7
20260503180507 57 269 2.6 16.5 0.00 0.00 0.00 43 1014.6
20260503175508 57 328 5.2 13.0 0.00 0.00 0.00 41 1014.5
20260503175007 56 80 4.3 13.0 0.00 0.00 0.00 41 1014.6
20260503174507 57 329 5.2 11.3 0.00 0.00 0.00 43 1014.7
20260503173507 56 28 3.5 11.3 0.00 0.00 0.00 43 1014.9
20260503172007 55 57 6.1 10.4 0.00 0.00 0.00 41 1014.9
20260503171507 55 320 4.3 10.4 0.00 0.00 0.00 44 1014.9
20260503171009 57 209 3.5 10.4 0.00 0.00 0.00 47 1014.9
20260503170506 57 299 3.5 11.3 0.00 0.00 0.00 41 1014.8